Year,Month,Day,Hour,Minute,Value (Times are PST for barometer in hPa)
2017,05,28,00,00,956.66
2017,05,28,00,01,956.66
2017,05,28,00,02,956.66
2017,05,28,00,03,956.66
2017,05,28,00,04,956.66
2017,05,28,00,05,956.66
2017,05,28,00,06,956.66
2017,05,28,00,07,956.66
2017,05,28,00,08,956.66
2017,05,28,00,09,956.66
2017,05,28,00,10,956.66
2017,05,28,00,11,956.66
2017,05,28,00,12,956.66
2017,05,28,00,13,956.66
2017,05,28,00,14,956.66
2017,05,28,00,15,956.66
2017,05,28,00,16,956.66
2017,05,28,00,17,956.66
2017,05,28,00,18,956.66
2017,05,28,00,19,956.66
2017,05,28,00,20,956.66
2017,05,28,00,21,956.66
2017,05,28,00,22,956.66
2017,05,28,00,23,956.66
2017,05,28,00,24,956.66
2017,05,28,00,25,978.40
2017,05,28,00,26,978.40
2017,05,28,00,27,978.40
2017,05,28,00,28,978.40
2017,05,28,00,29,978.40
2017,05,28,00,30,978.40
2017,05,28,00,31,978.40
2017,05,28,00,32,978.40
2017,05,28,00,33,978.40
2017,05,28,00,34,978.40
2017,05,28,00,35,978.40
2017,05,28,00,36,978.40
2017,05,28,00,37,978.40
2017,05,28,00,38,978.40
2017,05,28,00,39,978.40
2017,05,28,00,40,978.40
2017,05,28,00,41,1005.11
2017,05,28,00,42,1005.11
2017,05,28,00,43,1005.11
2017,05,28,00,44,1005.11
2017,05,28,00,45,1005.11
2017,05,28,00,46,1005.11
2017,05,28,00,47,1005.11
2017,05,28,00,48,1005.11
2017,05,28,00,49,1005.11
2017,05,28,00,50,1005.11
2017,05,28,00,51,1005.11
2017,05,28,00,52,1005.11
2017,05,28,00,53,1005.11
2017,05,28,00,54,1005.11
2017,05,28,00,55,1005.11
2017,05,28,00,56,1005.11
2017,05,28,00,57,1005.11
2017,05,28,00,58,1005.11
2017,05,28,00,59,1005.11
2017,05,28,01,00,1005.11
2017,05,28,01,01,1005.11
2017,05,28,01,02,1005.11
2017,05,28,01,03,1005.11
2017,05,28,01,04,1005.11
2017,05,28,01,05,1005.11
2017,05,28,01,06,1005.11
2017,05,28,01,07,1005.11
2017,05,28,01,08,1005.11
2017,05,28,01,09,1005.11
2017,05,28,01,10,1005.11
2017,05,28,01,11,1005.11
2017,05,28,01,12,1005.11
2017,05,28,01,13,1005.11
2017,05,28,01,14,1005.11
2017,05,28,01,15,1005.11
2017,05,28,01,16,1005.11
2017,05,28,01,17,1005.11
2017,05,28,01,18,1005.11
2017,05,28,01,19,1005.11
2017,05,28,01,20,1005.11
2017,05,28,01,21,1005.11
2017,05,28,01,22,1005.11
2017,05,28,01,23,1005.11
2017,05,28,01,24,1003.86
2017,05,28,01,25,980.06
2017,05,28,01,26,980.06
2017,05,28,01,27,980.06
2017,05,28,01,28,980.06
2017,05,28,01,29,980.06
2017,05,28,01,30,980.06
2017,05,28,01,31,980.06
2017,05,28,01,32,980.06
2017,05,28,01,33,980.06
2017,05,28,01,34,980.06
2017,05,28,01,35,980.06
2017,05,28,01,36,980.06
2017,05,28,01,37,980.06
2017,05,28,01,38,984.56
2017,05,28,01,39,984.56
2017,05,28,01,40,984.56
2017,05,28,01,41,984.10
2017,05,28,01,42,975.01
2017,05,28,01,43,975.01
2017,05,28,01,44,975.01
2017,05,28,01,45,975.01
2017,05,28,01,46,975.01
2017,05,28,01,47,975.01
2017,05,28,01,48,975.01
2017,05,28,01,49,975.01
2017,05,28,01,50,975.01
2017,05,28,01,51,975.01
2017,05,28,01,52,975.01
2017,05,28,01,53,975.01
2017,05,28,01,54,975.01
2017,05,28,01,55,975.01
2017,05,28,01,56,975.01
2017,05,28,01,57,975.01
2017,05,28,01,58,975.01
2017,05,28,01,59,975.01
2017,05,28,02,00,975.01
2017,05,28,02,01,975.01
2017,05,28,02,02,975.01
2017,05,28,02,03,975.01
2017,05,28,02,04,975.01
2017,05,28,02,05,975.01
2017,05,28,02,06,975.01
2017,05,28,02,07,975.01
2017,05,28,02,08,975.01
2017,05,28,02,09,975.01
2017,05,28,02,10,988.32
2017,05,28,02,11,988.32
2017,05,28,02,12,988.32
2017,05,28,02,13,988.32
2017,05,28,02,14,988.32
2017,05,28,02,15,988.32
2017,05,28,02,16,988.32
2017,05,28,02,17,988.32
2017,05,28,02,18,988.32
2017,05,28,02,19,988.32
2017,05,28,02,20,988.32
2017,05,28,02,21,988.32
2017,05,28,02,22,988.32
2017,05,28,02,23,988.32
2017,05,28,02,24,988.32
2017,05,28,02,25,988.32
2017,05,28,02,26,988.32
2017,05,28,02,27,988.32
2017,05,28,02,28,988.32
2017,05,28,02,29,988.32
2017,05,28,02,30,988.32
2017,05,28,02,31,988.32
2017,05,28,02,32,988.32
2017,05,28,02,33,988.32
2017,05,28,02,34,988.32
2017,05,28,02,35,988.32
2017,05,28,02,36,988.32
2017,05,28,02,37,988.32
2017,05,28,02,38,987.94
2017,05,28,02,39,980.66
2017,05,28,02,40,980.66
2017,05,28,02,41,980.66
2017,05,28,02,42,980.66
2017,05,28,02,43,980.66
2017,05,28,02,44,980.66
2017,05,28,02,45,980.01
2017,05,28,02,46,967.69
2017,05,28,02,47,967.69
2017,05,28,02,48,967.69
2017,05,28,02,49,967.69
2017,05,28,02,50,988.05
2017,05,28,02,51,988.05
2017,05,28,02,52,988.05
2017,05,28,02,53,988.05
2017,05,28,02,54,993.69
2017,05,28,02,55,994.14
2017,05,28,02,56,994.18
2017,05,28,02,57,994.18
2017,05,28,02,58,994.16
2017,05,28,02,59,993.74
2017,05,28,03,00,993.74
2017,05,28,03,01,993.74
2017,05,28,03,02,993.74
2017,05,28,03,03,991.98
2017,05,28,03,04,991.53
2017,05,28,03,05,991.53
2017,05,28,03,06,991.53
2017,05,28,03,07,991.53
2017,05,28,03,08,991.53
2017,05,28,03,09,991.53
2017,05,28,03,10,991.23
2017,05,28,03,11,985.27
2017,05,28,03,12,985.27
2017,05,28,03,13,985.27
2017,05,28,03,14,985.27
2017,05,28,03,15,985.27
2017,05,28,03,16,985.27
2017,05,28,03,17,985.27
2017,05,28,03,18,985.27
2017,05,28,03,19,985.27
2017,05,28,03,20,985.27
2017,05,28,03,21,985.27
2017,05,28,03,22,985.27
2017,05,28,03,23,985.27
2017,05,28,03,24,985.27
2017,05,28,03,25,985.27
2017,05,28,03,26,985.27
2017,05,28,03,27,985.27
2017,05,28,03,28,985.27
2017,05,28,03,29,985.27
2017,05,28,03,30,985.27
2017,05,28,03,31,985.27
2017,05,28,03,32,985.27
2017,05,28,03,33,985.27
2017,05,28,03,34,985.27
2017,05,28,03,35,985.27
2017,05,28,03,36,985.27
2017,05,28,03,37,985.27
2017,05,28,03,38,985.27
2017,05,28,03,39,1013.48
2017,05,28,03,40,1013.48
2017,05,28,03,41,1013.48
2017,05,28,03,42,1013.48
2017,05,28,03,43,1013.48
2017,05,28,03,44,1013.48
2017,05,28,03,45,1013.48
2017,05,28,03,46,1013.48
2017,05,28,03,47,1013.11
2017,05,28,03,48,1006.03
2017,05,28,03,49,1006.03
2017,05,28,03,50,1006.03
2017,05,28,03,51,1006.03
2017,05,28,03,52,1006.03
2017,05,28,03,53,1006.03
2017,05,28,03,54,1006.03
2017,05,28,03,55,1006.03
2017,05,28,03,56,1006.03
2017,05,28,03,57,1006.03
2017,05,28,03,58,1006.03
2017,05,28,03,59,1006.03
2017,05,28,04,00,1006.03
2017,05,28,04,01,1006.03
2017,05,28,04,02,991.40
2017,05,28,04,03,991.40
2017,05,28,04,04,991.40
2017,05,28,04,05,991.40
2017,05,28,04,06,991.40
2017,05,28,04,07,991.40
2017,05,28,04,08,991.40
2017,05,28,04,09,991.40
2017,05,28,04,10,991.40
2017,05,28,04,11,991.40
2017,05,28,04,12,991.40
2017,05,28,04,13,991.40
2017,05,28,04,14,991.40
2017,05,28,04,15,991.40
2017,05,28,04,16,991.40
2017,05,28,04,17,991.40
2017,05,28,04,18,991.40
2017,05,28,04,19,991.40
2017,05,28,04,20,991.40
2017,05,28,04,21,991.40
2017,05,28,04,22,991.40
2017,05,28,04,23,991.40
2017,05,28,04,24,991.40
2017,05,28,04,25,991.40
2017,05,28,04,26,1007.99
2017,05,28,04,27,1007.99
2017,05,28,04,28,1007.99
2017,05,28,04,29,1007.99
2017,05,28,04,30,1007.99
2017,05,28,04,31,1007.99
2017,05,28,04,32,1007.99
2017,05,28,04,33,1006.23
2017,05,28,04,34,1006.23
2017,05,28,04,35,1006.23
2017,05,28,04,36,996.48
2017,05,28,04,37,996.48
2017,05,28,04,38,996.48
2017,05,28,04,39,996.48
2017,05,28,04,40,996.48
2017,05,28,04,41,996.48
2017,05,28,04,42,996.48
2017,05,28,04,43,996.48
2017,05,28,04,44,996.48
2017,05,28,04,45,1010.02
2017,05,28,04,46,1010.02
2017,05,28,04,47,1010.02
2017,05,28,04,48,1010.02
2017,05,28,04,49,1010.02
2017,05,28,04,50,1010.02
2017,05,28,04,51,1010.02
2017,05,28,04,52,1010.02
2017,05,28,04,53,1010.02
2017,05,28,04,54,1010.02
2017,05,28,04,55,1010.02
2017,05,28,04,56,1010.02
2017,05,28,04,57,1010.02
2017,05,28,04,58,1010.02
2017,05,28,04,59,1010.02
2017,05,28,05,00,1008.53
2017,05,28,05,01,1008.53
2017,05,28,05,02,1008.42
2017,05,28,05,03,1006.33
2017,05,28,05,04,1006.04
2017,05,28,05,05,1006.03
2017,05,28,05,06,1006.03
2017,05,28,05,07,1006.03
2017,05,28,05,08,1006.03
2017,05,28,05,09,1006.03
2017,05,28,05,10,1006.03
2017,05,28,05,11,1006.03
2017,05,28,05,12,1006.10
2017,05,28,05,13,1007.45
2017,05,28,05,14,1007.45
2017,05,28,05,15,1010.57
2017,05,28,05,16,1010.57
2017,05,28,05,17,1010.57
2017,05,28,05,18,1010.57
2017,05,28,05,19,1010.57
2017,05,28,05,20,1010.57
2017,05,28,05,21,1010.57
2017,05,28,05,22,1010.19
2017,05,28,05,23,1003.01
2017,05,28,05,24,1003.01
2017,05,28,05,25,1003.01
2017,05,28,05,26,1003.01
2017,05,28,05,27,1003.01
2017,05,28,05,28,1003.01
2017,05,28,05,29,1003.01
2017,05,28,05,30,1003.01
2017,05,28,05,31,995.87
2017,05,28,05,32,995.87
2017,05,28,05,33,995.87
2017,05,28,05,34,995.87
2017,05,28,05,35,995.87
2017,05,28,05,36,995.87
2017,05,28,05,37,996.38
2017,05,28,05,38,1005.99
2017,05,28,05,39,1005.99
2017,05,28,05,40,1005.99
2017,05,28,05,41,1005.99
2017,05,28,05,42,1005.99
2017,05,28,05,43,1005.99
2017,05,28,05,44,1005.99
2017,05,28,05,45,1015.04
2017,05,28,05,46,1015.04
2017,05,28,05,47,1015.09
2017,05,28,05,48,1015.95
2017,05,28,05,49,1015.95
2017,05,28,05,50,1015.95
2017,05,28,05,51,1015.95
2017,05,28,05,52,1006.13
2017,05,28,05,53,1006.13
2017,05,28,05,54,1006.13
2017,05,28,05,55,1004.87
2017,05,28,05,56,980.90
2017,05,28,05,57,980.90
2017,05,28,05,58,980.90
2017,05,28,05,59,980.90
2017,05,28,06,00,980.90
2017,05,28,06,01,980.90
2017,05,28,06,02,980.90
2017,05,28,06,03,980.90
2017,05,28,06,04,980.90
2017,05,28,06,05,980.90
2017,05,28,06,06,980.90
2017,05,28,06,07,980.90
2017,05,28,06,08,980.90
2017,05,28,06,09,980.90
2017,05,28,06,10,1005.00
2017,05,28,06,11,1006.27
2017,05,28,06,12,1006.27
2017,05,28,06,13,1006.27
2017,05,28,06,14,1006.27
2017,05,28,06,15,1006.27
2017,05,28,06,16,1006.27
2017,05,28,06,17,1006.27
2017,05,28,06,18,1006.27
2017,05,28,06,19,1006.27
2017,05,28,06,20,1006.27
2017,05,28,06,21,1017.44
2017,05,28,06,22,1017.44
2017,05,28,06,23,1017.44
2017,05,28,06,24,1017.44
2017,05,28,06,25,1017.44
2017,05,28,06,26,1017.44
2017,05,28,06,27,1011.82
2017,05,28,06,28,1012.10
2017,05,28,06,29,1017.44
2017,05,28,06,30,1017.54
2017,05,28,06,31,1017.47
2017,05,28,06,32,1017.47
2017,05,28,06,33,1017.47
2017,05,28,06,34,1017.47
2017,05,28,06,35,1017.47
2017,05,28,06,36,1017.47
2017,05,28,06,37,1012.94
2017,05,28,06,38,1012.50
2017,05,28,06,39,1012.50
2017,05,28,06,40,1012.50
2017,05,28,06,41,1010.70
2017,05,28,06,42,1010.70
2017,05,28,06,43,1010.70
2017,05,28,06,44,1010.70
2017,05,28,06,45,1010.70
2017,05,28,06,46,1010.70
2017,05,28,06,47,1010.70
2017,05,28,06,48,1010.70
2017,05,28,06,49,1010.70
2017,05,28,06,50,1010.70
2017,05,28,06,51,1010.70
2017,05,28,06,52,1010.70
2017,05,28,06,53,1010.70
2017,05,28,06,54,1010.70
2017,05,28,06,55,1010.70
2017,05,28,06,56,1010.70
2017,05,28,06,57,995.94
2017,05,28,06,58,995.94
2017,05,28,06,59,1007.11
2017,05,28,07,00,1006.47
2017,05,28,07,01,1006.47
2017,05,28,07,02,1006.47
2017,05,28,07,03,1014.97
2017,05,28,07,04,1014.97
2017,05,28,07,05,1014.97
2017,05,28,07,06,1012.16
2017,05,28,07,07,1012.16
2017,05,28,07,08,1012.16
2017,05,28,07,09,1012.16
2017,05,28,07,10,1012.16
2017,05,28,07,11,1012.16
2017,05,28,07,12,1012.16
2017,05,28,07,13,1012.16
2017,05,28,07,14,1012.44
2017,05,28,07,15,1017.85
2017,05,28,07,16,1017.85
2017,05,28,07,17,1017.81
2017,05,28,07,18,1017.81
2017,05,28,07,19,1016.93
2017,05,28,07,20,1016.93
2017,05,28,07,21,1016.93
2017,05,28,07,22,1016.93
2017,05,28,07,23,1015.10
2017,05,28,07,24,1015.61
2017,05,28,07,25,1015.61
2017,05,28,07,26,1017.41
2017,05,28,07,27,1017.88
2017,05,28,07,28,1017.88
2017,05,28,07,29,1017.47
2017,05,28,07,30,1017.91
2017,05,28,07,31,1017.91
2017,05,28,07,32,1017.91
2017,05,28,07,33,1017.91
2017,05,28,07,34,1017.91
2017,05,28,07,35,1017.91
2017,05,28,07,36,1017.95
2017,05,28,07,37,1017.95
2017,05,28,07,38,1017.91
2017,05,28,07,39,1017.91
2017,05,28,07,40,1017.95
2017,05,28,07,41,1017.95
2017,05,28,07,42,1017.98
2017,05,28,07,43,1017.84
2017,05,28,07,44,1015.17
2017,05,28,07,45,1015.17
2017,05,28,07,46,1015.17
2017,05,28,07,47,1015.17
2017,05,28,07,48,1009.44
2017,05,28,07,49,1009.14
2017,05,28,07,50,1009.14
2017,05,28,07,51,1009.14
2017,05,28,07,52,1009.14
2017,05,28,07,53,1009.14
2017,05,28,07,54,1009.14
2017,05,28,07,55,1009.14
2017,05,28,07,56,1009.14
2017,05,28,07,57,1009.14
2017,05,28,07,58,1015.27
2017,05,28,07,59,1015.27
2017,05,28,08,00,1015.31
2017,05,28,08,01,1015.31
2017,05,28,08,02,1015.31
2017,05,28,08,03,1015.31
2017,05,28,08,04,1015.31
2017,05,28,08,05,1015.31
2017,05,28,08,06,1018.08
2017,05,28,08,07,1018.12
2017,05,28,08,08,1018.12
2017,05,28,08,09,1018.12
2017,05,28,08,10,1018.12
2017,05,28,08,11,1017.68
2017,05,28,08,12,1018.12
2017,05,28,08,13,1018.12
2017,05,28,08,14,1018.12
2017,05,28,08,15,1018.12
2017,05,28,08,16,1018.12
2017,05,28,08,17,1018.12
2017,05,28,08,18,1017.24
2017,05,28,08,19,1017.24
2017,05,28,08,20,1017.24
2017,05,28,08,21,1017.24
2017,05,28,08,22,1017.24
2017,05,28,08,23,1017.24
2017,05,28,08,24,1017.24
2017,05,28,08,25,1006.64
2017,05,28,08,26,1006.64
2017,05,28,08,27,1006.64
2017,05,28,08,28,1010.33
2017,05,28,08,29,1010.33
2017,05,28,08,30,1010.33
2017,05,28,08,31,1010.33
2017,05,28,08,32,1010.33
2017,05,28,08,33,1010.33
2017,05,28,08,34,1010.33
2017,05,28,08,35,1010.33
2017,05,28,08,36,1010.33
2017,05,28,08,37,1010.33
2017,05,28,08,38,1010.33
2017,05,28,08,39,1010.33
2017,05,28,08,40,1010.33
2017,05,28,08,41,1010.33
2017,05,28,08,42,1010.33
2017,05,28,08,43,1010.33
2017,05,28,08,44,1010.33
2017,05,28,08,45,1010.33
2017,05,28,08,46,1012.63
2017,05,28,08,47,1012.63
2017,05,28,08,48,1012.63
2017,05,28,08,49,1012.63
2017,05,28,08,50,1012.63
2017,05,28,08,51,1012.63
2017,05,28,08,52,1012.63
2017,05,28,08,53,1012.63
2017,05,28,08,54,1012.63
2017,05,28,08,55,1006.57
2017,05,28,08,56,1006.57
2017,05,28,08,57,1006.57
2017,05,28,08,58,1006.57
2017,05,28,08,59,1006.57
2017,05,28,09,00,1006.57
2017,05,28,09,01,1006.57
2017,05,28,09,02,1006.57
2017,05,28,09,03,1009.31
2017,05,28,09,04,1009.31
2017,05,28,09,05,1012.56
2017,05,28,09,06,1012.56
2017,05,28,09,07,1012.56
2017,05,28,09,08,1009.35
2017,05,28,09,09,1009.35
2017,05,28,09,10,1009.35
2017,05,28,09,11,1009.35
2017,05,28,09,12,1009.35
2017,05,28,09,13,1009.35
2017,05,28,09,14,1009.35
2017,05,28,09,15,1009.35
2017,05,28,09,16,1009.35
2017,05,28,09,17,1004.17
2017,05,28,09,18,1004.17
2017,05,28,09,19,1012.63
2017,05,28,09,20,1012.60
2017,05,28,09,21,1012.60
2017,05,28,09,22,1012.60
2017,05,28,09,23,1012.60
2017,05,28,09,24,1012.60
2017,05,28,09,25,1012.60
2017,05,28,09,26,1012.60
2017,05,28,09,27,1012.60
2017,05,28,09,28,1012.60
2017,05,28,09,29,1012.60
2017,05,28,09,30,1012.60
2017,05,28,09,31,1012.60
2017,05,28,09,32,1012.60
2017,05,28,09,33,1012.60
2017,05,28,09,34,1012.60
2017,05,28,09,35,1012.60
2017,05,28,09,36,1012.60
2017,05,28,09,37,1012.60
2017,05,28,09,38,1012.60
2017,05,28,09,39,1012.60
2017,05,28,09,40,1012.60
2017,05,28,09,41,1012.60
2017,05,28,09,42,1012.60
2017,05,28,09,43,1012.60
2017,05,28,09,44,1012.60
2017,05,28,09,45,1012.60
2017,05,28,09,46,1012.60
2017,05,28,09,47,1012.60
2017,05,28,09,48,1012.60
2017,05,28,09,49,1012.60
2017,05,28,09,50,1012.60
2017,05,28,09,51,1012.60
2017,05,28,09,52,1012.60
2017,05,28,09,53,1009.79
2017,05,28,09,54,1009.79
2017,05,28,09,55,1009.79
2017,05,28,09,56,1009.79
2017,05,28,09,57,1009.79
2017,05,28,09,58,1009.79
2017,05,28,09,59,1009.79
2017,05,28,10,00,1009.79
2017,05,28,10,01,1009.79
2017,05,28,10,02,1009.79
2017,05,28,10,03,1009.79
2017,05,28,10,04,1009.79
2017,05,28,10,05,1009.79
2017,05,28,10,06,1009.79
2017,05,28,10,07,1009.79
2017,05,28,10,08,1009.79
2017,05,28,10,09,1009.79
2017,05,28,10,10,1012.53
2017,05,28,10,11,1012.53
2017,05,28,10,12,1012.53
2017,05,28,10,13,1012.53
2017,05,28,10,14,1012.53
2017,05,28,10,15,1012.53
2017,05,28,10,16,1012.53
2017,05,28,10,17,1012.53
2017,05,28,10,18,1012.53
2017,05,28,10,19,1013.51
2017,05,28,10,20,1013.07
2017,05,28,10,21,1013.07
2017,05,28,10,22,1013.07
2017,05,28,10,23,1013.07
2017,05,28,10,24,1013.07
2017,05,28,10,25,1013.07
2017,05,28,10,26,1013.07
2017,05,28,10,27,1013.07
2017,05,28,10,28,1013.07
2017,05,28,10,29,1013.07
2017,05,28,10,30,1013.07
2017,05,28,10,31,1013.07
2017,05,28,10,32,1013.07
2017,05,28,10,33,1013.07
2017,05,28,10,34,1007.59
2017,05,28,10,35,1007.59
2017,05,28,10,36,1007.11
2017,05,28,10,37,1007.11
2017,05,28,10,38,1007.11
2017,05,28,10,39,1007.11
2017,05,28,10,40,1007.11
2017,05,28,10,41,1009.79
2017,05,28,10,42,1009.79
2017,05,28,10,43,1009.79
2017,05,28,10,44,1009.79
2017,05,28,10,45,1009.79
2017,05,28,10,46,1009.79
2017,05,28,10,47,1009.79
2017,05,28,10,48,1009.79
2017,05,28,10,49,1009.79
2017,05,28,10,50,1015.41
2017,05,28,10,51,1015.41
2017,05,28,10,52,1015.41
2017,05,28,10,53,1018.01
2017,05,28,10,54,1018.19
2017,05,28,10,55,1018.19
2017,05,28,10,56,1014.46
2017,05,28,10,57,1014.46
2017,05,28,10,58,1014.46
2017,05,28,10,59,1012.21
2017,05,28,11,00,1012.09
2017,05,28,11,01,1012.09
2017,05,28,11,02,1012.09
2017,05,28,11,03,1014.49
2017,05,28,11,04,1014.49
2017,05,28,11,05,1014.49
2017,05,28,11,06,1014.49
2017,05,28,11,07,1014.49
2017,05,28,11,08,1014.49
2017,05,28,11,09,1014.49
2017,05,28,11,10,1014.49
2017,05,28,11,11,1014.49
2017,05,28,11,12,1018.15
2017,05,28,11,13,1018.15
2017,05,28,11,14,1018.15
2017,05,28,11,15,1018.15
2017,05,28,11,16,1018.15
2017,05,28,11,17,1018.15
2017,05,28,11,18,1018.15
2017,05,28,11,19,1018.15
2017,05,28,11,20,1018.15
2017,05,28,11,21,1018.15
2017,05,28,11,22,1018.15
2017,05,28,11,23,1018.15
2017,05,28,11,24,1018.15
2017,05,28,11,25,1017.68
2017,05,28,11,26,1017.68
2017,05,28,11,27,1017.68
2017,05,28,11,28,1017.68
2017,05,28,11,29,1017.68
2017,05,28,11,30,1017.68
2017,05,28,11,31,1017.68
2017,05,28,11,32,1017.68
2017,05,28,11,33,1017.61
2017,05,28,11,34,1017.61
2017,05,28,11,35,1017.61
2017,05,28,11,36,1018.05
2017,05,28,11,37,1018.02
2017,05,28,11,38,1018.02
2017,05,28,11,39,1018.02
2017,05,28,11,40,1018.02
2017,05,28,11,41,1018.02
2017,05,28,11,42,1018.02
2017,05,28,11,43,1018.02
2017,05,28,11,44,1018.02
2017,05,28,11,45,1018.02
2017,05,28,11,46,1018.02
2017,05,28,11,47,1018.02
2017,05,28,11,48,1018.02
2017,05,28,11,49,1018.02
2017,05,28,11,50,1018.02
2017,05,28,11,51,1018.02
2017,05,28,11,52,1018.02
2017,05,28,11,53,1009.89
2017,05,28,11,54,1009.89
2017,05,28,11,55,1009.89
2017,05,28,11,56,1009.89
2017,05,28,11,57,1009.89
2017,05,28,11,58,1009.89
2017,05,28,11,59,1009.89
2017,05,28,12,00,1009.89
2017,05,28,12,01,1009.89
2017,05,28,12,02,1009.89
2017,05,28,12,03,1009.89
2017,05,28,12,04,1009.89
2017,05,28,12,05,1009.89
2017,05,28,12,06,1009.89
2017,05,28,12,07,1009.89
2017,05,28,12,08,1009.89
2017,05,28,12,09,1016.63
2017,05,28,12,10,1016.63
2017,05,28,12,11,1016.63
2017,05,28,12,12,1016.63
2017,05,28,12,13,1017.95
2017,05,28,12,14,1017.95
2017,05,28,12,15,1017.95
2017,05,28,12,16,1017.95
2017,05,28,12,17,1017.95
2017,05,28,12,18,1017.95
2017,05,28,12,19,1017.95
2017,05,28,12,20,1017.95
2017,05,28,12,21,1017.95
2017,05,28,12,22,1017.95
2017,05,28,12,23,1017.95
2017,05,28,12,24,1017.95
2017,05,28,12,25,1017.95
2017,05,28,12,26,1017.95
2017,05,28,12,27,1017.95
2017,05,28,12,28,997.29
2017,05,28,12,29,997.73
2017,05,28,12,30,997.73
2017,05,28,12,31,997.73
2017,05,28,12,32,997.73
2017,05,28,12,33,997.73
2017,05,28,12,34,997.73
2017,05,28,12,35,1000.98
2017,05,28,12,36,1000.98
2017,05,28,12,37,1000.98
2017,05,28,12,38,1000.98
2017,05,28,12,39,1000.98
2017,05,28,12,40,1000.98
2017,05,28,12,41,1000.98
2017,05,28,12,42,1000.98
2017,05,28,12,43,1000.98
2017,05,28,12,44,1006.54
2017,05,28,12,45,1006.54
2017,05,28,12,46,1006.54
2017,05,28,12,47,1006.54
2017,05,28,12,48,1006.54
2017,05,28,12,49,1007.52
2017,05,28,12,50,1007.52
2017,05,28,12,51,1007.52
2017,05,28,12,52,1007.52
2017,05,28,12,53,1007.52
2017,05,28,12,54,1007.52
2017,05,28,12,55,1007.52
2017,05,28,12,56,1007.52
2017,05,28,12,57,1007.52
2017,05,28,12,58,1007.52
2017,05,28,12,59,1007.52
2017,05,28,13,00,1007.52
2017,05,28,13,01,1007.52
2017,05,28,13,02,1007.52
2017,05,28,13,03,1007.52
2017,05,28,13,04,1007.52
2017,05,28,13,05,1007.52
2017,05,28,13,06,1007.52
2017,05,28,13,07,1007.52
2017,05,28,13,08,1013.55
2017,05,28,13,09,1013.55
2017,05,28,13,10,1013.55
2017,05,28,13,11,1013.55
2017,05,28,13,12,1013.55
2017,05,28,13,13,1013.55
2017,05,28,13,14,979.12
2017,05,28,13,15,977.31
2017,05,28,13,16,977.31
2017,05,28,13,17,977.31
2017,05,28,13,18,977.31
2017,05,28,13,19,977.31
2017,05,28,13,20,977.31
2017,05,28,13,21,977.31
2017,05,28,13,22,977.31
2017,05,28,13,23,977.31
2017,05,28,13,24,977.31
2017,05,28,13,25,1014.60
2017,05,28,13,26,1014.60
2017,05,28,13,27,1011.85
2017,05,28,13,28,1011.85
2017,05,28,13,29,1011.85
2017,05,28,13,30,1011.85
2017,05,28,13,31,1011.85
2017,05,28,13,32,1011.85
2017,05,28,13,33,1011.85
2017,05,28,13,34,1011.85
2017,05,28,13,35,1011.85
2017,05,28,13,36,1011.85
2017,05,28,13,37,1013.38
2017,05,28,13,38,1013.38
2017,05,28,13,39,1013.38
2017,05,28,13,40,1013.38
2017,05,28,13,41,1013.38
2017,05,28,13,42,1013.38
2017,05,28,13,43,1013.38
2017,05,28,13,44,1013.38
2017,05,28,13,45,1013.38
2017,05,28,13,46,997.66
2017,05,28,13,47,997.66
2017,05,28,13,48,997.66
2017,05,28,13,49,997.66
2017,05,28,13,50,997.66
2017,05,28,13,51,997.66
2017,05,28,13,52,997.66
2017,05,28,13,53,997.66
2017,05,28,13,54,997.66
2017,05,28,13,55,997.66
2017,05,28,13,56,997.66
2017,05,28,13,57,997.66
2017,05,28,13,58,997.66
2017,05,28,13,59,997.66
2017,05,28,14,00,997.66
2017,05,28,14,01,997.66
2017,05,28,14,02,997.66
2017,05,28,14,03,997.66
2017,05,28,14,04,997.66
2017,05,28,14,05,997.66
2017,05,28,14,06,997.66
2017,05,28,14,07,997.66
2017,05,28,14,08,997.66
2017,05,28,14,09,997.66
2017,05,28,14,10,997.66
2017,05,28,14,11,997.66
2017,05,28,14,12,997.66
2017,05,28,14,13,997.66
2017,05,28,14,14,997.66
2017,05,28,14,15,990.72
2017,05,28,14,16,990.72
2017,05,28,14,17,990.72
2017,05,28,14,18,990.72
2017,05,28,14,19,990.72
2017,05,28,14,20,990.72
2017,05,28,14,21,990.72
2017,05,28,14,22,990.72
2017,05,28,14,23,990.72
2017,05,28,14,24,990.72
2017,05,28,14,25,990.72
2017,05,28,14,26,990.72
2017,05,28,14,27,990.72
2017,05,28,14,28,990.72
2017,05,28,14,29,990.72
2017,05,28,14,30,990.72
2017,05,28,14,31,990.72
2017,05,28,14,32,990.72
2017,05,28,14,33,990.72
2017,05,28,14,34,990.72
2017,05,28,14,35,990.72
2017,05,28,14,36,990.72
2017,05,28,14,37,990.72
2017,05,28,14,38,990.72
2017,05,28,14,39,990.72
2017,05,28,14,40,990.72
2017,05,28,14,41,990.72
2017,05,28,14,42,990.72
2017,05,28,14,43,990.72
2017,05,28,14,44,990.72
2017,05,28,14,45,990.72
2017,05,28,14,46,990.72
2017,05,28,14,47,990.72
2017,05,28,14,48,990.72
2017,05,28,14,49,990.72
2017,05,28,14,50,990.72
2017,05,28,14,51,990.72
2017,05,28,14,52,990.72
2017,05,28,14,53,990.72
2017,05,28,14,54,990.72
2017,05,28,14,55,990.72
2017,05,28,14,56,990.72
2017,05,28,14,57,990.72
2017,05,28,14,58,990.72
2017,05,28,14,59,990.72
2017,05,28,15,00,990.72
2017,05,28,15,01,990.72
2017,05,28,15,02,990.72
2017,05,28,15,03,990.72
2017,05,28,15,04,990.72
2017,05,28,15,05,1005.15
2017,05,28,15,06,1005.15
2017,05,28,15,07,1005.15
2017,05,28,15,08,1005.15
2017,05,28,15,09,1005.15
2017,05,28,15,10,1005.15
2017,05,28,15,11,1005.15
2017,05,28,15,12,1005.15
2017,05,28,15,13,1005.15
2017,05,28,15,14,1005.15
2017,05,28,15,15,1005.15
2017,05,28,15,16,994.82
2017,05,28,15,17,994.28
2017,05,28,15,18,994.28
2017,05,28,15,19,994.28
2017,05,28,15,20,994.28
2017,05,28,15,21,994.28
2017,05,28,15,22,994.28
2017,05,28,15,23,994.28
2017,05,28,15,24,994.28
2017,05,28,15,25,994.28
2017,05,28,15,26,994.28
2017,05,28,15,27,994.28
2017,05,28,15,28,994.28
2017,05,28,15,29,994.28
2017,05,28,15,30,986.04
2017,05,28,15,31,985.61
2017,05,28,15,32,985.61
2017,05,28,15,33,985.61
2017,05,28,15,34,985.61
2017,05,28,15,35,985.61
2017,05,28,15,36,985.61
2017,05,28,15,37,985.61
2017,05,28,15,38,985.61
2017,05,28,15,39,985.61
2017,05,28,15,40,985.61
2017,05,28,15,41,985.61
2017,05,28,15,42,985.61
2017,05,28,15,43,985.61
2017,05,28,15,44,985.61
2017,05,28,15,45,985.61
2017,05,28,15,46,985.61
2017,05,28,15,47,985.61
2017,05,28,15,48,985.61
2017,05,28,15,49,985.61
2017,05,28,15,50,985.61
2017,05,28,15,51,985.61
2017,05,28,15,52,985.61
2017,05,28,15,53,985.61
2017,05,28,15,54,985.61
2017,05,28,15,55,985.61
2017,05,28,15,56,985.38
2017,05,28,15,57,985.37
2017,05,28,15,58,985.37
2017,05,28,15,59,985.37
2017,05,28,16,00,985.37
2017,05,28,16,01,985.37
2017,05,28,16,02,985.37
2017,05,28,16,03,985.37
2017,05,28,16,04,985.37
2017,05,28,16,05,985.37
2017,05,28,16,06,985.37
2017,05,28,16,07,985.37
2017,05,28,16,08,985.37
2017,05,28,16,09,985.37
2017,05,28,16,10,985.37
2017,05,28,16,11,985.37